Regional Weather Roundup
Issued by NWS

Home | Current Version | Previous Version | Graphics & Text | Print | Product List | Glossary On
Versions: 1 2 3 4 5 6 7 8 9 10 11 12 13 14 15 16 17 18 19 20 21 22 23 24 25 26 27 28 29 30 31 32 33 34 35 36 37 38 39 40 41 42 43 44 45 46 47 48 49 50
865
ASUS43 KDTX 230801
RWRMI
MICHIGAN HOURLY REGIONAL WEATHER ROUNDUP
NATIONAL WEATHER SERVICE DETROIT/PONTIAC MI
400 AM EDT SAT JUL 23 2016

NOTE: "FAIR" INDICATES FEW OR NO CLOUDS BELOW 12,000 FEET WITH NO
SIGNIFICANT WEATHER AND/OR OBSTRUCTION TO VISIBILITY.

MIZ047>049-052>055-059>063-066>070-074>076-081>083-230900-
SOUTHEAST LOWER MICHIGAN

CITY           SKY/WX    TMP DP  RH WIND       PRES   REMARKS
ADRIAN         CLEAR     69  68  96 CALM      30.00S
ALMA           FOG       66  66 100 S6        29.98R VSB 3/4
ANN ARBOR      CLEAR     69  68  96 CALM      29.98F
BAD AXE        CLEAR     59  58  97 CALM      29.97S
CARO           FOG       64  64  99 CALM      29.96S VSB 3/4
DETROIT CITY   CLEAR     76  70  82 W5        29.96F
DETROIT        CLEAR     76  69  79 W5        29.98S
FLINT          CLEAR     69  65  86 S3        29.97F
GROSSE ILE     CLEAR     75  70  83 NW3       29.96S
HOWELL         CLEAR     69  68  96 W3        29.99S

CITY           SKY/WX    TMP DP  RH WIND       PRES   REMARKS
JACKSON        CLEAR     67  67 100 CALM      30.00F
LAMBERTVILLE   CLEAR     71  68  91 CALM      29.99S
LANSING        CLEAR     70  67  90 W5        29.99F
LAPEER         FAIR      65  64  96 S3        29.98S
MASON          CLEAR     68  66  96 CALM      30.00S
MONROE         CLEAR     71  70  96 CALM      29.97S
MT. CLEMENS    CLEAR     74  69  84 NW5       29.94F
PONTIAC        CLEAR     73  68  84 CALM      29.98F
PORT HOPE        N/A     67  61  81 SW6       29.93S
PORT HURON       N/A     66  66 100 CALM      29.96S FOG
TRI CITIES     PTCLDY    72  68  87 W3        29.97S
MIDLAND        FAIR      63  63  99 CALM      29.95F
TROY           CLEAR     77  69  77 CALM      29.99S
SAGINAW HB     CLEAR     68  64  88 CALM      29.96S
$$
MIZ043>046-050>051-056>058-064>065-071>073-077>080-230900-
SOUTHWEST LOWER MICHIGAN

CITY           SKY/WX    TMP DP  RH WIND       PRES   REMARKS
BATTLE CREEK   CLEAR     65  65 100 CALM      30.01F
BENTON HARBOR  CLEAR     68  66  93 CALM      29.99F
BIG RAPIDS     CLEAR     65  65 100 CALM      29.99S
COLDWATER      CLEAR     68  68 100 CALM      30.01S FOG
FREMONT        FAIR      64  64 100 CALM      29.98S FOG
HOLLAND        CLEAR     64  62  93 SW3       30.00S
GRAND RAPIDS   CLEAR     68  65  90 W6        29.99F FOG
IONIA          FAIR      67  65  93 SW5       29.98F FOG
KALAMAZOO      CLEAR     69  66  90 CALM      30.01S FOG
LUDINGTON      CLEAR     71  69  93 SW3       29.97S
MARSHALL       FOG       67  66  98 CALM      30.00S VSB 1/2
MOUNT PLEASANT PTCLDY    66  64  95 CALM      29.96F
MUSKEGON         N/A     68  66  93 CALM      29.99R
SOUTH HAVEN    CLEAR     64  63  99 CALM      29.99F
$$
MIZ016>042-230900-
NORTHERN LOWER MICHIGAN

CITY           SKY/WX    TMP DP  RH WIND       PRES   REMARKS
ALPENA         CLEAR     63  59  87 CALM      29.95S
BEAVER ISLAND  CLEAR     61  61  99 CALM      29.96R
BELLAIRE         N/A     61  60  95 CALM      29.97R FOG
CADILLAC       CLEAR     62  60  93 CALM      30.00S
CHARLEVOIX     CLEAR     65  64  96 CALM      29.99S
FRANKFORT      CLEAR     68  66  93 CALM      29.97R
GAYLORD        CLEAR     66  59  78 W5        29.99S
GRAYLING       CLEAR     59  58  94 W5        30.00R
HARBOR SPRINGS PTCLDY    64  63  96 CALM      29.96S
HOUGHTON LAKE  PTCLDY    61  58  90 CALM      30.00S
MANISTEE       FOG       62  62 100 E3        29.97S VSB 1/2
OSCODA         PTCLDY    68  58  72 CALM      29.94S
PELLSTON       PTCLDY    59  57  93 CALM      29.96R
ROGERS CITY    CLEAR     68  60  75 W6        29.95R
TRAVERSE CITY  CLEAR     70  66  87 CALM      29.94S
$$
MIZ007>008-015-230900-
EASTERN UPPER MICHIGAN

CITY           SKY/WX    TMP DP  RH WIND       PRES   REMARKS
KINROSS        PTCLDY    62  60  93 W7        29.95R
MACKINAC ISLAN CLEAR     69  64  84 W6        29.95R
NEWBERRY       CLEAR     61  60  96 W5        29.95S
S. S. MARIE    PTCLDY    64  59  83 W5        29.93R
$$
MIZ004>006-011>014-085-230900-
CENTRAL UPPER MICHIGAN

CITY           SKY/WX    TMP DP  RH WIND       PRES   REMARKS
MANISTIQUE     CLEAR     59  58  97 CALM      29.95S FOG
ESCANABA       CLEAR     64  57  77 NW5       29.94S
MENOMINEE      PTCLDY    67  65  93 CALM      29.97R
SAWYER-GWINN   CLEAR     62  56  83 CALM      29.99R
$$
MIZ001>003-009>011-084-230900-
WESTERN UPPER MICHIGAN

CITY           SKY/WX    TMP DP  RH WIND       PRES   REMARKS
IRON MOUNTAIN  CLOUDY    60  55  83 CALM      29.99R
HOUGHTON       PTCLDY    64  54  69 NW9       29.96S
COPPER HARBOR    N/A     71  57  61 VRB3      29.93F
IRONWOOD       PTCLDY    59  59 100 CALM      30.00S
$$

ABBREVIATIONS USED IN REMARKS
   TC - TEMPERATURE IN CELSIUS
  WCI - WIND CHILL INDEX
   HX - HEAT INDEX
  VSB - VISIBILITY





USA.gov is the U.S. government's official web portal to all federal, state and local government web resources and services.